EW6298 Stockholm SE current weather conditions

sailwx.info

Wind from 330

Air temperature 3.3° C
Dewpoint -2.2° C

Last reported at 2020-Jan-22 14:02 UTC.
Time now 2020-Jan-22 14:20 UTC

Location: N 59°44' E 018°10'.
View on Google Maps.

See reports from other nearby stations

  
Tides and Currents Weather Stations Pressure Air Temp Water Temp Dewpoint Dewpoint Depression Visibility Wind Speed Wind Dir Waves Ship Positions
date/time (UTC)wind fromknots sea level pressurealtimeterstation pressurevisibilityair tempwater tempwave heightnotes
2020-Jan-22 14:02 330 3.3
2020-Jan-22 13:52 359 3.9
2020-Jan-22 13:47 324 3.9
2020-Jan-22 13:42 359 3.9
2020-Jan-22 13:37 317 3.9
2020-Jan-22 13:32 328 3.9
2020-Jan-22 13:27 327 4.4
2020-Jan-22 13:22 314 4.4
2020-Jan-22 13:17 312 4.4
2020-Jan-22 13:12 327 4.4
2020-Jan-22 13:07 328 4.4
2020-Jan-22 13:02 017 4.4
2020-Jan-22 12:57 359 4.4
2020-Jan-22 12:52 325 4.4
2020-Jan-22 12:47 333 4.4
2020-Jan-22 12:42 326 4.4
2020-Jan-22 12:37 349 4.4
2020-Jan-22 12:32 359 4.4
2020-Jan-22 12:27 307 4.4
2020-Jan-22 12:22 359 4.4
2020-Jan-22 12:17 332 4.4
2020-Jan-22 12:12 327 4.4
2020-Jan-22 12:07 325 4.4
2020-Jan-22 12:02 325 4.4
2020-Jan-22 11:57 320 4.4
2020-Jan-22 11:52 322 4.4
2020-Jan-22 11:47 312 4.4
2020-Jan-22 11:42 322 4.4
2020-Jan-22 11:37 325 4.4
2020-Jan-22 11:32 315 4.4
2020-Jan-22 11:27 301 4.4
2020-Jan-22 11:22 321 3.9
2020-Jan-22 11:17 323 3.9
2020-Jan-22 11:12 359 3.9
2020-Jan-22 11:07 359 3.9
2020-Jan-22 11:02 324 3.9
2020-Jan-22 10:57 359 3.9
2020-Jan-22 10:52 359 3.9
2020-Jan-22 10:47 359 3.9
2020-Jan-22 10:42 359 3.9
2020-Jan-22 10:37 311 3.9
2020-Jan-22 10:32 359 3.9
2020-Jan-22 10:27 313 3.9
2020-Jan-22 10:22 359 3.9
2020-Jan-22 10:17 359 3.3
2020-Jan-22 10:12 359 3.3
2020-Jan-22 10:07 359 3.3
2020-Jan-22 10:02 325 3.3
2020-Jan-22 09:57 305 3.3
2020-Jan-22 09:52 294 3.3
2020-Jan-22 09:47 292 3.3
2020-Jan-22 09:42 311 3.3
2020-Jan-22 09:37 359 3.3
2020-Jan-22 09:32 320 3.3
2020-Jan-22 09:27 332 3.3
2020-Jan-22 09:22 324 3.3
2020-Jan-22 09:17 309 2.8
2020-Jan-22 09:12 317 2.8
2020-Jan-22 09:07 302 2.8
2020-Jan-22 09:02 270 2.8
2020-Jan-22 08:57 359 2.8
2020-Jan-22 08:52 326 2.8
2020-Jan-22 08:47 326 2.8
2020-Jan-22 08:42 359 2.8
2020-Jan-22 08:37 302 2.8
2020-Jan-22 08:32 265 2.2
2020-Jan-22 08:27 300 2.2
2020-Jan-22 08:22 281 2.2
2020-Jan-22 08:17 359 2.2
2020-Jan-22 08:12 296 2.2
2020-Jan-22 08:07 359 2.2
2020-Jan-22 08:02 303 2.2
2020-Jan-22 07:57 336 2.2
2020-Jan-22 07:52 359 2.2
2020-Jan-22 07:47 288 2.2
2020-Jan-22 07:42 301 2.2
2020-Jan-22 07:37 291 2.2
2020-Jan-22 07:32 317 2.2
2020-Jan-22 07:27 293 2.2
2020-Jan-22 07:22 354 2.2
2020-Jan-22 07:17 296 2.2
2020-Jan-22 07:12 317 2.2
2020-Jan-22 07:07 280 2.2
2020-Jan-22 07:02 284 2.2
2020-Jan-22 06:57 264 2.2
2020-Jan-22 06:52 359 2.2
2020-Jan-22 06:47 253 2.2
2020-Jan-22 06:42 359 2.2
2020-Jan-22 06:37 359 2.2
2020-Jan-22 06:32 310 2.2
2020-Jan-22 06:27 278 2.2
2020-Jan-22 06:22 303 2.2
2020-Jan-22 06:17 359 2.2
2020-Jan-22 06:12 307 2.2
2020-Jan-22 06:07 297 2.2
2020-Jan-22 06:02 359 2.2
2020-Jan-22 05:57 264 2.8
2020-Jan-22 05:52 292 2.2
2020-Jan-22 05:47 287 2.8
2020-Jan-22 05:42 301 2.8
2020-Jan-22 05:37 264 2.8
2020-Jan-22 05:32 297 2.8
2020-Jan-22 05:27 307 2.8
2020-Jan-22 05:22 359 2.8
2020-Jan-22 05:17 305 2.8
2020-Jan-22 05:12 312 2.8
2020-Jan-22 05:07 359 2.8
2020-Jan-22 05:02 307 2.8
2020-Jan-22 04:57 292 2.8
2020-Jan-22 04:52 287 2.8
2020-Jan-22 04:47 359 2.8
2020-Jan-22 04:42 290 2.8
2020-Jan-22 04:37 272 3.3
2020-Jan-22 04:32 359 3.3
2020-Jan-22 04:27 270 3.3
2020-Jan-22 04:22 359 3.3
2020-Jan-22 04:17 306 2.8
2020-Jan-22 04:12 289 3.3
2020-Jan-22 04:07 283 3.3
2020-Jan-22 04:02 298 3.3
2020-Jan-22 03:57 287 3.3
2020-Jan-22 03:52 359 3.3
2020-Jan-22 03:47 305 3.3
2020-Jan-22 03:42 254 3.3
2020-Jan-22 03:37 301 3.3
2020-Jan-22 03:32 308 3.3
2020-Jan-22 03:27 298 3.3
2020-Jan-22 03:22 317 3.3
2020-Jan-22 03:17 291 3.3
2020-Jan-22 03:12 253 3.3
2020-Jan-22 03:07 287 3.3
2020-Jan-22 03:02 308 3.3
2020-Jan-22 02:57 359 3.3
2020-Jan-22 02:52 291 3.3
2020-Jan-22 02:47 293 3.9
2020-Jan-22 02:42 301 3.3
2020-Jan-22 02:37 359 3.3
2020-Jan-22 02:32 294 3.3
2020-Jan-22 02:27 359 3.9
2020-Jan-22 02:22 263 3.3
2020-Jan-22 02:17 291 3.9
2020-Jan-22 02:12 359 3.9
2020-Jan-22 02:07 290 3.3
2020-Jan-22 02:02 258 3.9
2020-Jan-22 01:57 318 3.9
2020-Jan-22 01:52 359 3.9
2020-Jan-22 01:47 300 3.9
2020-Jan-22 01:42 359 3.9
2020-Jan-22 01:37 328 3.9
2020-Jan-22 01:32 303 4.4
2020-Jan-22 01:27 297 4.4
2020-Jan-22 01:22 297 4.4
2020-Jan-22 01:17 304 4.4
2020-Jan-22 01:12 359 4.4
2020-Jan-22 01:07 297 4.4
2020-Jan-22 01:02 359 4.4
2020-Jan-22 00:57 306 4.4
2020-Jan-22 00:52 290 4.4
2020-Jan-22 00:47 359 5.0
2020-Jan-22 00:42 307 5.0
2020-Jan-22 00:37 302 5.0
2020-Jan-22 00:32 299 5.0
2020-Jan-22 00:27 284 5.0
2020-Jan-22 00:22 239 5.0
2020-Jan-22 00:17 359 5.0
2020-Jan-22 00:12 359 5.0
2020-Jan-22 00:07 292 5.0
2020-Jan-22 00:02 305 5.6
2020-Jan-21 23:57 303 5.6
2020-Jan-21 23:52 296 5.0
2020-Jan-21 23:47 291 5.6
2020-Jan-21 23:42 302 5.0
2020-Jan-21 23:37 305 5.0
2020-Jan-21 23:32 359 5.0
2020-Jan-21 23:27 359 5.0
2020-Jan-21 23:22 359 5.0
2020-Jan-21 23:17 311 5.6
2020-Jan-21 23:12 270 5.6
2020-Jan-21 23:07 323 5.6
2020-Jan-21 23:02 290 5.6
2020-Jan-21 22:52 293 5.6
2020-Jan-21 22:47 302 5.6
2020-Jan-21 22:42 277 5.6
2020-Jan-21 22:37 359 5.6
2020-Jan-21 22:32 290 5.6
2020-Jan-21 22:27 262 5.6
2020-Jan-21 22:22 297 5.6
2020-Jan-21 22:17 359 5.6
2020-Jan-21 22:12 267 5.6
2020-Jan-21 22:07 290 5.6
2020-Jan-21 22:02 305 5.6
2020-Jan-21 21:57 276 5.6
2020-Jan-21 21:52 283 5.6
2020-Jan-21 21:47 258 6.1
2020-Jan-21 21:42 272 6.1
2020-Jan-21 21:37 257 6.1
2020-Jan-21 21:32 359 6.1
2020-Jan-21 21:27 285 6.1
2020-Jan-21 21:22 284 6.1
2020-Jan-21 21:17 359 6.1
2020-Jan-21 21:12 301 6.1
2020-Jan-21 21:07 297 6.1
2020-Jan-21 21:02 287 5.6
2020-Jan-21 20:57 300 5.6
2020-Jan-21 20:52 274 5.6
2020-Jan-21 20:47 310 5.6
2020-Jan-21 20:42 276 5.6
2020-Jan-21 20:37 359 5.6
2020-Jan-21 20:32 359 5.6
2020-Jan-21 20:27 359 5.6
2020-Jan-21 20:22 197 5.6
2020-Jan-21 20:17 289 5.6
2020-Jan-21 20:12 256 5.6
2020-Jan-21 20:07 359 5.6
2020-Jan-21 20:02 256 5.6
2020-Jan-21 19:57 307 5.6
2020-Jan-21 19:52 264 5.6
2020-Jan-21 19:47 291 5.6
2020-Jan-21 19:42 283 5.6
2020-Jan-21 19:37 359 5.6
2020-Jan-21 19:32 248 5.0
2020-Jan-21 19:27 268 5.0
2020-Jan-21 19:22 250 5.6
2020-Jan-21 19:17 249 5.0
2020-Jan-21 19:12 296 5.6
2020-Jan-21 19:07 359 5.0
2020-Jan-21 19:02 359 5.6
2020-Jan-21 18:57 359 5.0
2020-Jan-21 18:52 288 5.0
2020-Jan-21 18:47 289 5.6
2020-Jan-21 18:42 279 5.6
2020-Jan-21 18:37 278 5.6
2020-Jan-21 18:32 254 5.6
2020-Jan-21 18:27 259 5.6
2020-Jan-21 18:22 359 5.6
2020-Jan-21 18:17 300 5.6
2020-Jan-21 18:12 359 5.0
2020-Jan-21 18:07 264 5.0
2020-Jan-21 18:02 249 5.0
2020-Jan-21 17:57 281 5.0
2020-Jan-21 17:52 262 4.4
2020-Jan-21 17:47 293 4.4
2020-Jan-21 17:42 277 5.0
2020-Jan-21 17:37 256 5.0
2020-Jan-21 17:32 359 5.0
2020-Jan-21 17:27 274 5.6
2020-Jan-21 17:22 359 5.6
2020-Jan-21 17:17 273 5.6
2020-Jan-21 17:12 295 5.6
2020-Jan-21 17:07 270 5.6
2020-Jan-21 17:02 270 5.6
2020-Jan-21 16:57 359 5.6
2020-Jan-21 16:52 359 5.6
2020-Jan-21 16:47 253 5.6
2020-Jan-21 16:42 303 6.1
2020-Jan-21 16:37 268 6.1
2020-Jan-21 16:32 296 6.1
2020-Jan-21 16:27 283 6.1
2020-Jan-21 16:22 326 6.1
2020-Jan-21 16:17 359 6.1
2020-Jan-21 16:12 254 6.1
2020-Jan-21 16:07 278 6.1
2020-Jan-21 16:02 299 6.1
2020-Jan-21 15:57 359 6.1
2020-Jan-21 15:52 293 6.1
2020-Jan-21 15:47 295 6.1
2020-Jan-21 15:42 283 6.1
2020-Jan-21 15:37 308 6.1
2020-Jan-21 15:32 302 6.1
2020-Jan-21 15:27 297 6.1
2020-Jan-21 15:22 284 6.1
2020-Jan-21 15:17 280 6.1
2020-Jan-21 15:12 268 6.1
2020-Jan-21 15:07 289 6.1
2020-Jan-21 15:02 359 6.1
2020-Jan-21 14:57 359 5.6
2020-Jan-21 14:52 277 5.6
2020-Jan-21 14:47 270 5.6
2020-Jan-21 14:42 299 5.6
2020-Jan-21 14:37 359 5.6
2020-Jan-21 14:32 293 5.6
2020-Jan-21 14:27 269 5.6
2020-Jan-21 14:22 266 5.6
2020-Jan-21 14:17 288 5.6
2020-Jan-21 14:12 270 5.6
2020-Jan-21 14:07 270 5.6
2020-Jan-21 14:02 253 5.6
2020-Jan-21 13:57 280 5.6
2020-Jan-21 13:52 275 5.6
2020-Jan-21 13:47 280 5.6
2020-Jan-21 13:42 253 5.6
2020-Jan-21 13:37 252 5.6
2020-Jan-21 13:32 249 6.1
2020-Jan-21 13:27 259 6.1
2020-Jan-21 13:22 285 6.1
2020-Jan-21 13:17 359 5.6
2020-Jan-21 13:12 286 5.6
2020-Jan-21 13:07 286 6.1
2020-Jan-21 13:02 273 6.1
2020-Jan-21 12:57 259 6.1
2020-Jan-21 12:52 268 6.1
2020-Jan-21 12:47 289 6.1
2020-Jan-21 12:42 261 6.7
2020-Jan-21 12:37 298 6.7
2020-Jan-21 12:32 359 6.7
2020-Jan-21 12:27 296 6.7
2020-Jan-21 12:22 284 6.7
2020-Jan-21 12:17 268 7.2
2020-Jan-21 12:12 253 7.2
2020-Jan-21 12:07 359 7.2
2020-Jan-21 12:02 251 7.2
2020-Jan-21 11:57 310 7.2
2020-Jan-21 11:52 293 7.2
2020-Jan-21 11:47 359 7.2
2020-Jan-21 11:42 250 7.2
2020-Jan-21 11:37 238 7.2
2020-Jan-21 11:32 285 7.2
2020-Jan-21 11:27 288 7.2
2020-Jan-21 11:22 359 7.2
2020-Jan-21 11:17 313 7.2
2020-Jan-21 11:12 272 7.2
2020-Jan-21 11:07 359 7.2
2020-Jan-21 11:02 283 7.2
2020-Jan-21 10:57 307 7.2
2020-Jan-21 10:52 295 7.2
2020-Jan-21 10:47 302 7.2
2020-Jan-21 10:42 301 7.2
2020-Jan-21 10:37 289 7.2
2020-Jan-21 10:32 294 7.2
2020-Jan-21 10:27 326 6.7
2020-Jan-21 10:22 301 6.7
2020-Jan-21 10:17 301 7.2
2020-Jan-21 10:12 287 7.2
2020-Jan-21 10:07 274 7.2
2020-Jan-21 10:02 299 7.2
2020-Jan-21 09:57 359 7.2
2020-Jan-21 09:52 263 7.2
2020-Jan-21 09:47 261 7.2
2020-Jan-21 09:42 306 7.2
2020-Jan-21 09:37 291 7.2
2020-Jan-21 09:32 304 7.2
2020-Jan-21 09:27 286 7.2
2020-Jan-21 09:22 295 6.7
2020-Jan-21 09:17 280 6.7
2020-Jan-21 09:12 300 6.7
2020-Jan-21 09:07 312 6.7
2020-Jan-21 09:02 359 6.7
2020-Jan-21 08:57 314 6.7
2020-Jan-21 08:52 323 6.7
2020-Jan-21 08:47 308 6.7
2020-Jan-21 08:42 320 6.7
2020-Jan-21 08:37 320 6.7
2020-Jan-21 08:32 320 6.7
2020-Jan-21 08:27 318 6.7
2020-Jan-21 08:22 320 7.2
2020-Jan-21 08:17 299 7.2
2020-Jan-21 08:12 320 7.2
2020-Jan-21 08:07 305 7.2
2020-Jan-21 08:02 299 7.2
2020-Jan-21 07:57 298 7.2
2020-Jan-21 07:52 296 7.2
2020-Jan-21 07:47 276 7.2
2020-Jan-21 07:42 264 6.7
2020-Jan-21 07:37 359 7.2
2020-Jan-21 07:32 287 7.2
2020-Jan-21 07:27 271 7.2
2020-Jan-21 07:22 270 7.2
2020-Jan-21 07:17 287 7.2
2020-Jan-21 07:12 284 7.2
2020-Jan-21 07:07 283 7.2
2020-Jan-21 07:02 359 7.2
2020-Jan-21 06:57 266 7.2
2020-Jan-21 06:52 267 7.2
2020-Jan-21 06:47 359 7.2
2020-Jan-21 06:42 272 7.2
2020-Jan-21 06:37 282 7.2
2020-Jan-21 06:32 260 7.2
2020-Jan-21 06:27 295 7.2
2020-Jan-21 06:22 359 7.2
2020-Jan-21 06:17 255 7.8
2020-Jan-21 06:12 287 7.8
2020-Jan-21 06:07 283 7.8
2020-Jan-21 06:02 277 7.8
2020-Jan-21 05:57 272 7.8
2020-Jan-21 05:52 359 7.8
2020-Jan-21 05:47 231 7.8
2020-Jan-21 05:42 264 7.2
2020-Jan-21 05:37 303 7.2
2020-Jan-21 05:32 359 7.2
2020-Jan-21 05:27 256 7.2
2020-Jan-21 05:22 287 7.2
2020-Jan-21 05:17 359 7.2
2020-Jan-21 05:12 271 7.2
2020-Jan-21 05:07 359 7.2
2020-Jan-21 05:02 228 7.2
2020-Jan-21 04:57 302 7.2
2020-Jan-21 04:52 274 7.2
2020-Jan-21 04:47 253 7.2
2020-Jan-21 04:42 359 7.2
2020-Jan-21 04:37 359 7.2
2020-Jan-21 04:32 283 7.2
2020-Jan-21 04:27 359 7.2
2020-Jan-21 04:22 281 7.8
2020-Jan-21 04:17 359 7.8
2020-Jan-21 04:12 256 7.8
2020-Jan-21 04:07 285 7.8
2020-Jan-21 04:02 270 7.8
2020-Jan-21 03:57 239 7.8
2020-Jan-21 03:52 359 7.8
2020-Jan-21 03:47 234 7.8
2020-Jan-21 03:42 246 7.8
2020-Jan-21 03:37 359 7.8
2020-Jan-21 03:32 359 7.8
2020-Jan-21 03:27 231 7.8
2020-Jan-21 03:22 241 7.8
2020-Jan-21 03:17 249 7.8
2020-Jan-21 03:12 243 7.8
2020-Jan-21 03:07 241 7.8
2020-Jan-21 03:02 236 7.8
2020-Jan-21 02:57 259 7.8
2020-Jan-21 02:52 281 7.8
2020-Jan-21 02:47 303 7.8
2020-Jan-21 02:42 359 7.8
2020-Jan-21 02:37 293 7.8
2020-Jan-21 02:32 281 7.8
2020-Jan-21 02:27 273 7.8
2020-Jan-21 02:22 359 7.8
2020-Jan-21 02:17 235 7.8
2020-Jan-21 02:12 290 7.8
2020-Jan-21 02:07 303 7.8
2020-Jan-21 02:02 256 8.3
2020-Jan-21 01:57 285 7.8
2020-Jan-21 01:52 359 7.8
2020-Jan-21 01:47 255 7.8
2020-Jan-21 01:42 259 7.8
2020-Jan-21 01:37 249 7.8
2020-Jan-21 01:32 238 7.8
2020-Jan-21 01:27 274 7.8
2020-Jan-21 01:22 359 7.8
2020-Jan-21 01:17 267 7.8
2020-Jan-21 01:12 305 7.8
2020-Jan-21 01:07 359 7.8
2020-Jan-21 01:02 278 7.8
2020-Jan-21 00:57 359 7.8
2020-Jan-21 00:52 254 7.8
2020-Jan-21 00:47 277 7.8
2020-Jan-21 00:42 265 7.8
2020-Jan-21 00:37 268 7.8
2020-Jan-21 00:32 234 7.8
2020-Jan-21 00:27 287 7.8
2020-Jan-21 00:22 247 7.8
2020-Jan-21 00:17 359 7.8
2020-Jan-21 00:12 277 7.8
2020-Jan-21 00:07 276 7.8
2020-Jan-21 00:02 250 7.8
2020-Jan-20 23:57 308 7.2
2020-Jan-20 23:52 220 7.2
2020-Jan-20 23:47 239 7.2
2020-Jan-20 23:42 275 7.2
2020-Jan-20 23:37 359 7.2
2020-Jan-20 23:32 303 7.2
2020-Jan-20 23:27 263 7.2
2020-Jan-20 23:22 278 7.2
2020-Jan-20 23:17 308 7.2
2020-Jan-20 23:12 273 6.7
2020-Jan-20 23:07 271 6.7
2020-Jan-20 23:02 216 6.7
2020-Jan-20 22:57 359 6.7
2020-Jan-20 22:52 284 6.7
2020-Jan-20 22:47 237 6.7
2020-Jan-20 22:42 236 6.7
2020-Jan-20 22:37 244 6.7
2020-Jan-20 22:32 254 6.7
2020-Jan-20 22:27 272 6.7
2020-Jan-20 22:22 247 6.7
2020-Jan-20 22:17 223 6.7
2020-Jan-20 22:12 234 6.7
2020-Jan-20 22:07 270 6.7
2020-Jan-20 22:02 249 6.7
2020-Jan-20 21:57 276 6.7
2020-Jan-20 21:52 240 6.7
2020-Jan-20 21:47 240 6.7
2020-Jan-20 21:42 256 7.2
2020-Jan-20 21:37 233 7.2
2020-Jan-20 21:32 243 7.2
2020-Jan-20 21:27 359 7.2
2020-Jan-20 21:22 238 7.2
2020-Jan-20 21:17 247 6.7
2020-Jan-20 21:12 359 7.2
2020-Jan-20 21:07 239 7.2
2020-Jan-20 21:02 270 7.2
2020-Jan-20 20:57 233 6.7
2020-Jan-20 20:52 267 6.7
2020-Jan-20 20:47 264 6.7
2020-Jan-20 20:42 270 6.7
2020-Jan-20 20:37 273 6.7
2020-Jan-20 20:32 248 6.7
2020-Jan-20 20:27 286 6.7
2020-Jan-20 20:22 263 6.7
2020-Jan-20 20:17 246 6.7
2020-Jan-20 20:12 297 6.7
2020-Jan-20 20:07 309 6.7
2020-Jan-20 20:02 231 6.7
2020-Jan-20 19:57 242 6.7
2020-Jan-20 19:52 237 6.7
2020-Jan-20 19:47 359 6.1
2020-Jan-20 19:42 293 6.1
2020-Jan-20 19:37 359 6.1
2020-Jan-20 19:32 267 6.1
2020-Jan-20 19:27 247 6.1
2020-Jan-20 19:22 281 5.6
2020-Jan-20 19:17 359 5.6
2020-Jan-20 19:12 251 5.6
2020-Jan-20 19:07 359 5.6
2020-Jan-20 19:02 238 5.6
2020-Jan-20 18:57 242 5.6
2020-Jan-20 18:52 257 5.6
2020-Jan-20 18:47 287 5.6
2020-Jan-20 18:42 244 5.6
2020-Jan-20 18:37 239 5.6
2020-Jan-20 18:32 301 5.6
2020-Jan-20 18:27 359 5.6
2020-Jan-20 18:22 221 5.6
2020-Jan-20 18:17 216 6.1
2020-Jan-20 18:12 359 5.6
2020-Jan-20 18:07 236 5.6
2020-Jan-20 18:02 227 5.6
2020-Jan-20 17:57 232 5.6
2020-Jan-20 17:52 256 6.1
2020-Jan-20 17:47 275 6.1
2020-Jan-20 17:42 205 6.1
2020-Jan-20 17:37 274 5.6
2020-Jan-20 17:32 254 5.6
2020-Jan-20 17:27 279 5.6
2020-Jan-20 17:22 359 5.6
2020-Jan-20 17:17 239 5.6
2020-Jan-20 17:12 234 5.6
2020-Jan-20 17:07 249 5.6
2020-Jan-20 17:02 359 5.6
2020-Jan-20 16:57 240 5.6
2020-Jan-20 16:52 246 5.6
2020-Jan-20 16:47 232 5.6
2020-Jan-20 16:42 247 5.6
2020-Jan-20 16:37 235 5.6
2020-Jan-20 16:32 231 5.6
2020-Jan-20 16:27 266 5.6
2020-Jan-20 16:22 222 5.6
2020-Jan-20 16:17 236 5.6
2020-Jan-20 16:12 253 5.6
2020-Jan-20 16:07 224 5.6
2020-Jan-20 16:02 243 5.6
2020-Jan-20 15:57 245 5.6
2020-Jan-20 15:52 359 5.6
2020-Jan-20 15:47 218 5.6
2020-Jan-20 15:42 268 5.6
2020-Jan-20 15:37 239 5.6
2020-Jan-20 15:32 359 5.6
2020-Jan-20 15:27 262 5.6
2020-Jan-20 15:22 253 5.6
2020-Jan-20 15:17 359 5.6
2020-Jan-20 15:12 253 5.6
2020-Jan-20 15:07 255 5.6
2020-Jan-20 15:02 255 5.6
2020-Jan-20 14:57 240 5.6
2020-Jan-20 14:52 280 5.6
2020-Jan-20 14:47 222 5.6
2020-Jan-20 14:42 247 5.6
2020-Jan-20 14:37 224 5.6
2020-Jan-20 14:32 220 5.6
2020-Jan-20 14:27 226 5.6
2020-Jan-20 14:22 359 5.6
2020-Jan-20 14:17 241 5.6
2020-Jan-20 14:12 227 5.6
2020-Jan-20 14:07 359 5.6
2020-Jan-20 14:02 256 5.6